CAPE
1395 1305 1228 1647 1110 505 36 55 23 77 0 11 49 154 53 39 0 47 96 328 568 666 832 1068 1444 1095 682 633 924 658 852 882 690 591 837 306 452 477 442 596 769 683 740 814 590 827 510 917 877
1211 1559 2275 2168 359 63 35 40 31 9 22 5 3 40 92 86 2 49 248 419 477 571 810 1078 1712 906 969 1226 918 931 912 948 840 708 682 316 480 423 512 629 678 623 758 1154 747 617 995 1100 874
1616 260 2547 1709 51 21 69 108 78 43 11 12 250 84 96 135 26 136 311 442 592 732 988 973 1907 1054 1215 1262 1142 1022 1075 943 868 767 327 562 396 255 401 567 1116 736 873 1652 1285 1298 1210 912 659
173 132 2028 343 20 5 26 75 94 0 0 5 28 48 6 61 323 298 469 581 763 1008 1416 1858 2038 709 1198 1364 1404 1146 1240 963 836 803 694 237 219 88 288 690 954 1306 1382 1268 1334 801 342 180 117
328 1049 336 26 22 53 55 127 52 45 42 149 67 37 8 159 202 319 506 682 902 1111 1439 1645 2361 1208 1055 1180 1243 1076 953 807 613 270 48 1 8 169 577 608 1192 1261 1299 1123 656 1422 1127 654 497
21 201 10 2 21 5 9 21 37 39 68 94 45 1 0 18 88 217 615 720 891 1083 1319 1253 2030 1559 1314 792 947 1086 911 933 809 426 265 216 126 229 545 898 1360 1405 1111 1055 1271 1152 533 384 460
27 20 37 42 18 0 0 0 0 20 66 103 30 2 0 18 100 219 551 729 832 1110 1313 1326 1007 1103 1122 1038 909 706 827 741 591 311 29 238 213 350 982 1320 1550 1231 1324 1137 831 625 643 644 639
40 246 179 60 0 8 23 38 26 4 11 58 37 44 1 12 37 70 274 624 884 1031 1188 1171 1067 931 726 992 1057 543 320 395 312 249 198 205 310 1058 1314 1580 1908 1081 1073 922 732 647 555 479 383
58 202 71 2 0 3 16 0 41 23 5 7 18 4 0 1 33 110 308 551 844 944 966 945 971 1042 1062 893 1044 896 542 580 833 567 482 656 346 791 1144 1316 1397 989 996 907 738 678 591 475 462
318 259 90 44 21 0 0 0 8 31 0 0 8 1 7 0 12 21 3 394 765 945 944 896 1148 1175 1382 1635 1355 980 769 546 511 295 353 470 411 580 679 1411 1483 1283 1047 930 860 774 716 597 212
165 175 93 64 1 0 0 9 13 0 0 0 0 0 0 0 2 3 8 40 379 878 930 787 872 986 604 1372 1186 394 786 701 584 369 143 305 694 756 992 512 771 644 1123 431 572 531 422 180 82
89 198 128 157 95 0 20 33 0 0 0 0 0 0 0 8 4 34 23 19 456 718 764 648 681 413 726 1015 949 625 570 570 556 249 270 360 308 759 591 569 408 262 99 168 115 59 20 10 38
149 208 158 142 81 18 0 0 0 0 0 0 0 0 0 40 27 32 16 44 24 79 13 287 387 413 1142 955 667 969 842 653 592 361 555 372 372 305 381 473 363 429 227 129 187 104 11 125 0
247 289 250 323 130 51 5 0 0 0 0 0 0 0 0 69 101 86 62 51 186 45 114 554 716 474 638 343 554 648 545 643 450 213 740 270 478 885 1077 294 227 156 115 273 124 531 655 325 27
188 110 276 496 266 0 24 0 0 0 0 0 1 13 11 221 67 91 238 188 161 245 349 365 446 999 1017 1025 519 418 618 454 351 307 758 715 694 1293 728 663 261 557 674 245 88 421 569 482 409
33 13 132 604 69 49 318 1 0 0 0 0 9 17 4 2 87 162 172 368 391 547 564 479 600 805 683 720 678 1340 533 492 458 1266 843 524 1088 1523 1226 859 648 901 1126 704 981 1051 745 412 831
7 9 193 598 291 293 728 76 0 0 0 0 1 26 15 34 37 96 485 731 734 736 675 477 520 675 555 651 802 957 977 1070 1182 1463 1275 1094 968 1740 736 1326 747 504 543 471 644 663 673 905 609
37 124 200 494 399 619 736 266 0 0 0 29 5 93 108 212 100 99 692 764 911 944 1096 494 711 976 1142 1287 1726 871 766 1348 815 1125 1224 1049 1303 1749 990 913 1180 941 618 181 113 445 728 721 940
99 78 35 629 672 664 655 208 71 15 52 90 64 133 117 268 238 272 358 943 967 887 1108 794 955 1255 905 1734 1257 1305 864 1254 1537 1216 1371 1320 1246 1054 1018 1010 963 896 776 576 470 844 1201 957 672
21 38 139 134 591 543 539 377 343 229 133 166 117 128 267 291 353 258 267 966 1049 955 1106 1101 1709 1327 953 1620 1344 991 712 1308 1416 1378 1107 1308 1178 1331 1392 1108 1084 1305 940 961 772 778 758 959 779
96 78 109 306 371 187 604 578 528 510 485 249 249 243 304 308 320 379 387 533 1031 1139 1363 1401 1936 1717 1825 2104 903 556 510 1182 1205 1378 1189 1675 1848 2192 2081 1276 916 1721 1498 1154 1288 1348 1506 1239 1058
5 123 128 38 53 1 93 705 550 534 585 548 423 362 381 419 428 485 429 472 757 1216 1350 1798 1959 1901 1785 2101 1289 1401 1145 1057 1399 1603 1788 1975 2005 1953 2176 1965 1809 1741 1714 1169 1017 1517 1343 808 670
33 21 30 3 1 27 179 373 599 520 573 559 553 474 560 564 619 606 598 584 659 1127 1471 1554 2479 2122 1893 2122 2566 1420 1811 1782 1347 1485 2035 2305 2047 1998 2061 1929 1774 1786 1496 1555 1236 625 1053 1037 793
70 41 25 0 2 22 29 302 425 507 525 513 452 485 537 563 675 667 642 601 737 1017 1513 1722 2080 2310 2309 1951 2154 2349 1695 1594 1851 1961 1946 1940 2152 2032 1719 2051 1809 1725 1626 1330 805 128 21 22 567
13 49 17 2 1 9 0 75 217 328 363 393 381 294 334 480 675 615 704 697 772 1119 1569 1872 1827 2172 1791 2975 2344 2293 2465 2383 2079 1926 1931 1819 1621 1157 2212 1819 1737 1489 1656 553 26 0 1 101 29
16 0 0 132 28 48 0 3 68 143 170 232 235 285 105 111 370 585 705 718 917 1079 1587 2147 2057 2315 2090 2176 2597 2481 2609 2928 2159 1909 1610 1698 2063 1767 2103 1735 1479 1826 802 178 11 0 0 0 207
0 0 0 0 0 1 1 0 0 36 79 101 57 34 98 89 279 398 826 1076 1000 1058 1691 2327 2176 2327 2476 2158 2349 2847 2388 2755 2354 1897 1910 1650 1612 1872 1316 1635 1305 707 310 46 0 0 0 19 172
7 0 0 0 2 5 1 0 0 7 39 10 38 0 0 8 64 274 939 1261 1241 1215 1578 2351 2332 2345 2521 2194 2129 2532 2943 2764 2460 2380 2468 2023 1410 1616 1535 1620 905 700 288 53 0 0 1 0 2
21 44 0 18 0 19 88 74 32 104 57 19 0 0 0 4 159 340 583 1245 1297 1494 1651 2307 2420 2464 2418 2335 2071 1993 2185 2514 2662 2508 2398 2496 1940 2262 1730 1790 1464 884 335 126 9 0 0 0 0
8 19 18 7 0 0 11 11 161 76 39 91 19 27 64 115 262 634 655 979 1354 1471 1684 2186 2211 2364 2386 2297 2128 2122 1980 2106 2252 2380 2222 2121 2361 2107 1686 1716 1567 1387 514 235 58 23 33 42 0
CIN
-308 -283 -246 -88 -55 -54 -51 -66 -87 -38 0 -63 -87 -89 -110 -128 0 -89 -30 -38 -45 -49 -19 -1 0 0 -4 -1 0 0 0 0 0 0 0 -2 -1 0 0 0 0 -1 -3 -5 -5 -1 -13 -1 -6
-191 -155 -107 -75 -39 -43 -30 -87 -41 -17 -56 -70 -59 -131 -111 -102 -101 -140 -39 -46 -73 -74 -43 -8 0 -1 0 0 0 0 0 0 0 0 0 -1 -4 0 0 0 -1 -5 -3 -2 0 -1 0 0 -10
-117 -435 -37 -91 -37 -19 -6 -22 -34 -12 -25 -65 -46 -94 -83 -54 -169 -68 -36 -40 -57 -54 -24 -3 0 -3 0 0 0 0 0 0 0 0 -5 0 0 0 0 -5 -1 -3 -3 0 0 0 0 -10 -19
-293 -122 -49 -42 -30 -18 -15 -13 -13 -1 0 -117 -139 -115 -184 -144 -39 -70 -21 -48 -98 -41 -3 -1 0 -21 0 0 0 0 0 0 0 0 0 0 -2 -9 -8 0 -2 -2 0 0 0 0 -24 -40 -53
-313 -48 -129 -51 -16 -11 -10 -10 -33 -82 -84 -32 -94 -112 -179 -75 -79 -62 -66 -122 -100 -61 -4 -1 0 -2 -2 0 0 0 0 0 0 -3 -18 -16 -61 -9 -4 -2 -1 0 0 0 0 0 -4 -30 -42
-421 -294 -62 -10 -9 -21 -15 -25 -56 -87 -77 -57 -114 -65 0 -171 -137 -98 -82 -114 -115 -98 -23 -6 0 0 0 -3 -1 0 0 0 0 0 0 0 -11 -11 -3 -2 0 0 0 0 0 -1 -24 -54 -62
-240 -273 -54 -22 -10 0 0 -4 0 -137 -91 -76 -167 -121 0 -12 -94 -59 -68 -103 -122 -103 -52 -12 -7 0 0 0 -1 -13 0 0 0 0 -44 -4 -6 -7 -4 0 0 0 0 0 -17 -20 -33 -44 -50
-233 -202 -53 -27 0 -58 -14 -49 -97 -228 -174 -118 -142 -140 -80 -18 -107 -91 -74 -60 -91 -90 -53 -51 -32 -26 -31 -1 0 -17 -11 -1 0 0 -8 -29 -24 -3 -3 0 0 0 0 -11 -24 -33 -47 -54 -61
-264 -221 -35 -11 0 -1 -16 0 -40 -110 -103 -88 -149 -233 0 -12 -152 -80 -31 -37 -70 -54 -59 -74 -70 -46 -31 -14 -1 -2 -8 -4 -3 -14 -18 -18 -38 -21 -20 -7 0 -14 -14 -24 -32 -43 -61 -73 -68
-148 -69 -11 -12 -15 -6 0 0 -42 -54 -52 0 -217 -145 -182 0 -70 -138 -37 -71 -70 -71 -62 -55 -57 -57 -38 -1 -9 -24 -16 -56 -66 -99 -81 -86 -76 -58 -45 -4 -8 -11 -23 -35 -42 -45 -57 -65 -117
-96 -37 -14 -7 -3 0 0 -8 -60 -14 0 0 0 0 -18 0 -46 -31 -61 -118 -115 -76 -37 -55 -89 -94 -76 -38 -36 -102 -64 -68 -75 -123 -181 -149 -65 -49 -43 -64 -39 -54 -42 -75 -68 -80 -90 -108 -123
-256 -16 -15 -11 -16 -3 -9 -31 0 0 0 0 0 0 0 -188 -42 -119 -104 -37 -84 -74 -34 -43 -64 -93 -67 -96 -127 -126 -111 -111 -92 -166 -162 -138 -102 -42 -53 -69 -105 -124 -114 -110 -130 -116 -96 -65 -85
-140 -7 -19 -38 -45 -54 0 0 0 0 0 0 0 0 0 -111 -117 -117 -56 -79 -71 -49 -15 -71 -82 -80 -58 -85 -138 -79 -61 -79 -80 -96 -61 -67 -59 -50 -45 -79 -101 -102 -102 -92 -76 -98 -70 -53 0
-57 -13 -20 -16 -88 -43 -39 0 0 0 0 0 0 0 0 -75 -87 -84 -90 -87 -111 -82 -89 -80 -68 -84 -61 -74 -65 -72 -50 -51 -66 -77 -71 -77 -59 -49 -52 -83 -81 -87 -69 -65 -76 -58 -61 -56 -53
-320 -315 -37 -31 -52 -5 -98 0 0 0 0 0 -18 -16 -9 -13 -56 -101 -68 -60 -91 -93 -84 -77 -58 -66 -45 -55 -60 -62 -59 -65 -72 -71 -63 -57 -51 -47 -43 -42 -62 -46 -72 -90 -114 -127 -79 -59 -53
-192 -576 -226 -48 -115 -216 -98 -42 0 0 0 0 -17 -12 -19 -24 -23 -20 -59 -43 -70 -110 -88 -80 -43 -63 -72 -49 -43 -46 -62 -60 -67 -59 -97 -92 -63 -40 -31 -36 -43 -62 -64 -80 -59 -48 -54 -78 -54
-185 -228 -140 -54 -83 -138 -75 -147 0 0 0 0 -6 -33 -41 -32 -38 -11 -39 -53 -74 -103 -106 -144 -107 -83 -86 -62 -57 -47 -45 -60 -61 -45 -55 -70 -68 -34 -37 -32 -42 -79 -101 -126 -120 -63 -59 -46 -58
-130 -202 -210 -67 -84 -60 -77 -117 0 0 0 -88 -87 -47 -38 -69 -45 -30 -40 -68 -87 -81 -75 -109 -108 -86 -65 -72 -46 -70 -64 -37 -63 -42 -51 -60 -69 -32 -37 -39 -31 -58 -86 -218 -214 -116 -70 -85 -58
-142 -261 -264 -65 -67 -51 -73 -90 -152 -188 -144 -101 -96 -56 -69 -69 -66 -41 -54 -73 -88 -92 -61 -72 -92 -102 -86 -80 -65 -79 -71 -76 -58 -66 -42 -41 -47 -33 -36 -50 -73 -74 -67 -109 -127 -66 -39 -60 -63
-193 -247 -72 -40 -59 -23 -60 -67 -58 -88 -129 -95 -115 -71 -112 -111 -95 -86 -94 -79 -92 -127 -107 -75 -60 -107 -107 -65 -87 -157 -196 -72 -57 -64 -65 -55 -67 -56 -55 -61 -54 -49 -50 -33 -55 -47 -43 -51 -54
-112 -80 -45 -48 -92 -34 -52 -36 -44 -18 -39 -64 -91 -78 -80 -118 -129 -124 -119 -133 -116 -149 -137 -142 -95 -70 -47 -40 -150 -255 -258 -96 -72 -91 -80 -60 -37 -32 -38 -54 -60 -32 -39 -48 -47 -36 -24 -26 -58
-20 -66 -126 -223 -314 -8 -15 -39 -42 -45 -28 -25 -36 -95 -99 -102 -138 -148 -122 -154 -136 -153 -149 -130 -145 -115 -72 -40 -63 -70 -74 -43 -53 -60 -66 -66 -57 -31 -31 -39 -37 -32 -41 -51 -51 -21 -25 -43 -54
-92 -229 -256 -329 -20 -308 -139 -62 -48 -72 -49 -24 -44 -96 -61 -79 -98 -130 -137 -121 -129 -144 -170 -173 -138 -139 -81 -49 -38 -70 -46 -47 -58 -66 -74 -48 -59 -57 -41 -35 -30 -48 -43 -34 -30 -35 -23 -29 -27
-138 -183 -294 -54 -557 -337 -254 -81 -121 -95 -73 -34 -41 -35 -28 -72 -91 -95 -116 -116 -150 -160 -163 -195 -186 -148 -111 -73 -53 -40 -54 -46 -49 -55 -41 -52 -55 -65 -58 -33 -36 -34 -34 -23 -36 -125 -165 -158 -32
-188 -191 -214 -53 -76 -139 0 -154 -174 -116 -76 -56 -51 -77 -39 -68 -81 -101 -110 -110 -179 -209 -202 -223 -221 -160 -161 -71 -64 -61 -59 -40 -39 -45 -49 -48 -62 -90 -71 -58 -44 -50 -37 -115 -124 0 -9 -119 -138
-190 0 0 -146 -231 -68 0 -42 -144 -116 -100 -101 -109 -80 -116 -69 -89 -96 -125 -159 -211 -240 -251 -194 -238 -177 -167 -138 -84 -72 -47 -38 -67 -63 -80 -62 -47 -53 -81 -74 -61 -41 -104 -192 -106 0 0 0 -100
-4 -19 0 0 0 -34 -53 0 0 -132 -146 -145 -135 -196 -146 -120 -60 -113 -171 -200 -253 -293 -277 -269 -273 -224 -182 -173 -119 -69 -74 -48 -58 -66 -64 -65 -67 -60 -77 -68 -79 -135 -185 -190 0 0 0 -119 -131
-32 0 0 -43 -62 -53 -22 0 0 -184 -182 -229 -197 0 0 -157 -156 -118 -173 -190 -243 -253 -316 -278 -281 -232 -185 -207 -187 -101 -54 -56 -59 -58 -41 -52 -66 -52 -55 -61 -101 -131 -207 -311 0 0 -16 0 -51
-87 -113 -81 -224 0 -160 -21 -47 -87 -110 -122 -178 0 0 0 -291 -149 -106 -159 -178 -205 -234 -253 -276 -236 -205 -179 -172 -205 -178 -123 -60 -49 -43 -39 -39 -56 -41 -61 -63 -59 -110 -187 -261 -250 0 0 0 0
-33 -25 -90 -106 -5 0 -100 -105 -35 -86 -144 -180 -235 -226 -206 -195 -144 -130 -139 -149 -162 -214 -231 -227 -234 -201 -180 -166 -197 -187 -169 -117 -86 -71 -77 -72 -56 -57 -65 -63 -52 -51 -165 -232 -337 -350 -339 -357 0
Wind_Speed
12 13 6 4 1 1 5 5 6 13 20 19 22 16 19 13 8 12 9 15 15 12 9 10 9 14 11 5 9 15 19 22 22 23 24 23 19 17 16 14 13 12 12 14 15 14 15 14 13
4 6 4 3 3 5 2 14 7 17 19 19 23 21 23 19 15 16 10 17 15 12 9 9 12 14 14 13 15 17 21 23 23 25 24 21 19 17 14 14 14 13 14 14 16 15 13 12 11
21 21 3 2 3 4 6 12 12 18 21 22 22 21 14 15 19 13 16 18 17 13 10 10 14 17 18 21 20 20 21 23 24 25 24 19 18 15 13 12 16 16 15 15 15 14 11 10 9
13 9 6 4 11 8 12 11 19 23 21 17 16 16 17 19 21 18 20 20 18 13 10 12 16 19 20 22 22 21 23 23 26 25 22 16 10 12 11 13 16 15 17 16 16 14 10 7 6
5 5 5 5 10 7 15 14 21 21 22 20 22 20 16 21 24 24 22 19 18 15 11 11 17 19 22 22 22 22 21 25 26 25 22 15 7 4 11 16 18 16 17 17 16 13 10 5 3
4 2 4 6 9 11 13 15 23 23 22 20 20 17 8 13 22 20 20 19 18 17 12 12 17 19 21 23 23 22 24 26 26 24 19 17 13 7 14 17 17 17 17 16 13 11 9 3 2
6 3 3 8 8 15 13 14 15 18 21 17 18 17 6 7 20 20 20 19 17 17 14 11 10 16 20 21 21 24 23 22 22 22 17 17 14 12 15 16 16 15 15 14 11 9 8 4 3
3 5 3 10 6 11 13 16 17 19 21 22 20 9 8 8 17 15 19 18 17 16 13 13 12 10 8 10 20 22 22 23 23 20 18 14 14 13 13 11 13 13 12 11 9 8 6 5 5
3 3 6 12 10 9 15 15 7 17 25 15 12 19 10 12 21 14 17 15 13 13 13 11 12 10 8 7 12 17 20 18 19 19 18 12 3 5 9 10 13 12 11 10 8 7 6 7 7
5 3 10 10 16 13 15 15 16 23 20 21 21 14 8 10 14 15 14 15 14 12 13 12 13 12 11 9 6 5 7 5 4 5 5 3 3 4 6 9 12 11 10 10 10 9 9 8 4
7 3 13 12 18 13 9 16 19 20 17 15 19 15 13 10 9 13 11 14 16 16 11 13 13 12 9 9 3 2 3 5 3 5 5 5 3 3 3 3 3 3 8 4 5 5 4 5 5
4 15 10 13 11 13 9 16 13 17 18 18 14 12 10 11 11 14 10 9 19 13 13 13 12 10 10 9 6 5 4 4 5 5 8 4 4 7 5 3 4 4 3 5 4 3 5 7 7
5 8 15 13 8 12 15 18 21 19 19 18 15 13 10 9 13 12 10 10 11 13 9 13 11 7 13 12 8 5 5 6 5 7 6 6 4 3 3 4 4 4 3 4 4 4 4 5 5
5 5 12 11 13 11 16 16 18 18 16 16 14 11 9 17 15 15 12 12 7 8 10 12 10 7 8 5 8 7 5 7 4 4 4 3 1 2 2 4 4 4 4 3 3 3 4 4 5
19 10 0 9 8 3 10 14 15 16 16 13 12 11 8 18 12 13 15 15 10 8 10 10 8 8 7 6 4 3 6 6 5 4 5 5 2 3 2 2 0 3 3 1 4 5 2 4 2
10 7 6 5 7 2 11 7 12 15 14 10 9 12 13 9 8 8 14 14 12 11 10 9 8 7 7 5 2 3 4 5 4 5 4 6 6 5 3 1 2 2 1 4 4 2 3 4 3
11 8 9 5 5 6 3 9 9 13 11 8 9 11 11 8 7 5 16 19 15 12 11 8 10 8 7 6 3 2 4 3 3 4 4 6 5 5 4 2 4 4 1 2 3 3 2 3 4
9 9 12 7 8 5 7 10 12 10 11 8 9 9 9 12 8 7 15 14 13 9 8 9 8 9 8 5 4 3 2 2 3 4 4 6 5 5 4 3 2 1 2 4 3 5 3 3 3
10 17 15 16 11 12 9 13 13 13 12 10 9 9 9 12 9 9 12 16 13 10 8 9 10 8 6 3 3 1 2 2 2 4 5 5 5 5 5 2 2 3 4 5 6 3 3 3 1
18 14 5 9 17 9 13 11 10 10 14 13 12 11 13 12 13 12 10 17 16 14 12 9 10 10 7 4 4 3 2 3 3 3 4 5 6 6 5 5 4 3 2 3 3 3 1 2 1
16 8 6 2 13 7 17 6 9 7 10 13 13 14 9 16 15 14 12 16 17 16 15 13 13 10 7 6 7 3 2 3 5 4 4 6 6 4 6 7 5 4 2 2 2 3 2 2 3
12 16 20 18 14 5 10 3 4 8 7 14 11 16 13 12 15 16 14 14 17 17 15 14 15 13 8 7 9 7 5 5 4 4 3 4 6 6 5 6 6 5 2 2 3 2 2 1 3
5 27 29 20 15 1 10 7 6 9 7 8 9 17 15 15 17 17 17 15 17 16 16 14 12 13 9 7 5 5 5 3 2 3 5 6 6 7 7 6 6 6 3 3 3 3 3 1 0
10 14 19 16 12 3 11 4 6 9 11 8 7 8 15 16 17 14 15 12 13 16 14 14 12 13 9 8 8 6 6 5 2 2 3 3 3 4 5 4 4 5 4 2 1 1 1 2 2
13 9 5 8 5 6 5 3 9 12 9 10 10 9 8 16 17 11 9 15 11 17 14 13 13 9 10 9 8 8 7 7 7 6 4 4 3 4 6 6 5 4 5 6 4 1 2 3 2
7 7 6 6 4 8 9 0 3 10 11 14 10 9 8 6 13 13 12 13 13 16 16 15 12 9 8 7 8 7 7 4 4 5 5 4 3 3 5 6 6 6 6 5 3 2 2 4 4
3 9 15 11 8 6 6 3 7 9 9 8 10 8 14 9 11 10 10 10 10 12 16 16 13 10 9 8 6 6 7 6 5 7 5 5 5 4 7 7 7 8 7 7 4 2 3 4 0
15 17 9 4 3 5 7 6 7 7 7 10 9 10 11 9 9 9 10 9 8 9 10 13 12 11 8 7 6 6 6 6 6 5 6 7 7 6 7 8 8 7 7 7 5 1 4 4 2
3 8 5 9 4 6 4 3 9 8 9 10 12 11 11 10 10 9 9 8 9 8 9 11 9 9 7 7 8 8 8 7 7 7 7 7 7 8 8 8 7 7 7 7 6 4 3 3 3
6 4 9 6 6 3 4 5 9 9 7 15 10 8 10 10 9 9 9 10 9 9 9 11 12 12 12 12 11 13 12 11 10 11 11 9 9 7 6 5 5 5 7 8 8 6 5 7 7
Wind_Direction
153 167 152 167 328 132 63 58 79 71 76 77 70 76 77 54 91 115 136 127 122 116 110 95 77 59 50 56 134 141 139 143 140 134 127 126 122 121 126 121 117 119 111 113 115 109 107 109 111
130 186 236 246 95 74 94 107 111 96 104 98 90 89 78 91 90 116 104 111 115 109 104 90 75 61 50 72 119 136 138 143 136 132 126 123 116 115 107 111 113 115 117 117 112 114 114 110 123
24 352 297 222 64 65 117 127 165 98 91 87 89 74 87 120 119 130 127 125 108 106 107 99 86 66 70 78 99 122 132 138 132 122 114 111 117 99 98 115 117 121 123 115 114 111 115 122 109
51 301 295 170 99 113 107 99 118 96 99 97 107 82 88 87 125 133 130 116 112 107 108 98 88 75 78 86 97 115 124 127 120 117 112 100 84 106 98 111 115 120 116 116 114 108 111 111 100
91 246 259 80 62 47 103 120 107 98 94 88 97 102 93 114 128 125 119 119 114 111 105 100 96 87 85 89 92 104 116 121 120 123 120 121 73 83 111 122 121 122 121 117 117 108 105 98 71
47 235 359 84 96 71 75 83 98 100 103 104 96 102 106 135 120 124 121 117 118 114 115 106 105 100 93 92 94 100 113 122 123 125 124 131 150 131 119 122 125 122 119 117 122 118 113 101 310
334 314 278 103 79 116 119 123 122 120 121 112 123 118 147 112 123 121 122 120 118 117 122 122 116 114 110 102 98 97 109 120 128 132 142 131 128 118 118 121 124 127 122 126 130 132 136 163 252
250 264 232 103 117 102 117 93 106 129 124 131 139 134 132 126 118 121 125 124 125 131 138 134 129 127 122 115 112 111 115 120 123 129 134 136 133 135 128 126 125 131 133 136 145 156 167 204 238
143 304 97 126 129 106 97 105 97 106 132 142 110 118 135 121 115 115 120 117 132 132 138 148 136 133 122 116 131 126 129 131 132 135 141 140 153 156 140 149 144 145 151 153 172 184 211 241 251
244 253 114 100 109 110 133 137 112 93 94 99 107 119 143 129 135 138 123 135 131 137 159 148 137 138 144 135 121 131 159 146 150 148 145 99 174 183 165 162 155 159 168 179 191 207 224 249 250
278 109 79 109 116 128 149 128 114 114 114 118 130 144 148 172 149 127 138 152 146 162 152 150 152 153 136 123 109 142 205 161 160 156 169 183 171 229 186 154 164 172 186 206 215 233 244 235 242
331 117 131 94 102 149 123 121 111 118 122 126 135 151 164 179 148 143 145 149 152 162 165 165 155 155 127 138 181 174 200 176 167 184 188 197 196 184 183 186 188 182 211 216 211 235 238 243 229
172 107 105 109 148 94 89 103 111 115 124 134 146 159 184 146 133 142 155 146 131 138 138 121 147 139 143 165 172 184 194 199 186 172 176 175 181 184 204 196 170 218 220 215 214 236 256 254 268
316 154 111 108 61 99 114 116 114 127 131 137 154 174 189 139 142 147 140 133 140 135 117 124 129 131 131 147 147 182 183 155 153 164 180 178 126 331 231 172 211 186 197 216 234 259 281 248 228
63 32 0 108 91 52 111 115 128 133 131 155 169 171 145 131 138 153 159 155 139 121 126 122 127 126 129 141 164 153 131 140 160 169 164 165 186 252 150 116 183 211 209 219 285 268 345 276 273
58 54 332 151 105 322 94 132 138 136 139 166 167 136 112 115 115 125 142 150 131 131 136 142 150 147 137 142 170 54 141 151 163 155 172 180 209 217 185 231 279 34 259 199 245 300 251 264 262
38 344 279 149 125 128 115 142 143 140 146 165 126 115 130 119 119 139 122 130 149 149 151 157 158 162 160 158 147 143 149 145 181 170 184 198 217 227 169 202 254 170 344 354 349 313 247 272 277
183 271 274 256 169 180 144 139 151 149 149 146 135 129 136 138 157 177 135 136 142 145 144 154 156 154 146 146 141 167 157 206 200 206 188 209 221 233 189 218 329 173 124 319 310 254 254 211 252
216 197 227 192 174 154 160 151 158 162 154 150 152 150 160 157 168 159 145 146 147 145 138 165 154 159 139 158 154 125 221 234 249 226 228 206 194 209 170 187 209 235 207 226 239 234 256 282 222
226 244 340 122 178 172 164 155 158 166 164 163 162 172 168 170 167 177 164 155 159 162 162 160 154 157 169 179 126 122 224 230 203 212 240 229 228 211 194 175 228 270 221 282 244 236 292 280 236
229 183 173 91 -0 113 132 132 150 187 157 170 172 180 179 174 179 179 180 170 163 168 171 167 161 166 181 157 136 155 336 272 245 212 217 217 196 202 183 179 189 215 184 233 291 249 192 238 277
66 102 93 34 47 322 336 173 162 172 198 179 181 182 185 172 181 180 191 175 170 174 173 166 165 165 180 189 166 171 183 187 205 168 200 190 199 216 213 189 188 189 192 239 255 258 183 134 280
138 92 90 99 132 241 315 106 226 165 208 197 210 185 183 189 174 184 191 178 177 168 172 172 162 168 166 185 171 183 178 218 135 183 174 186 199 209 217 190 179 179 182 232 229 299 299 240 275
149 107 105 96 109 309 263 130 216 182 191 189 210 205 192 188 181 178 186 175 166 173 161 167 166 172 164 175 183 197 200 198 145 142 174 191 204 217 212 197 155 163 178 198 101 153 289 275 267
81 57 18 50 10 241 187 76 217 198 184 168 192 211 175 177 173 177 151 169 150 167 162 165 169 174 181 172 182 195 215 197 180 180 193 205 205 215 202 178 179 192 194 163 142 176 281 275 262
51 101 93 43 360 300 25 351 210 144 148 164 178 184 115 123 152 165 159 164 153 161 160 163 169 170 181 187 188 188 209 210 194 201 209 222 204 217 172 179 191 196 163 146 142 219 264 268 256
205 66 132 139 241 273 217 108 67 128 141 147 140 107 145 100 127 133 143 141 143 147 160 162 169 174 177 183 185 202 209 216 213 225 222 221 219 183 186 189 181 170 158 146 147 222 280 254 269
152 148 81 18 205 314 146 146 185 171 161 166 137 134 134 130 127 128 136 138 143 146 142 156 162 171 176 176 192 206 211 217 225 232 231 215 222 224 185 177 179 172 154 150 154 238 301 225 231
166 143 158 122 143 237 156 212 191 177 173 156 137 140 144 139 133 134 126 139 139 136 135 145 152 158 178 188 194 211 218 216 214 224 233 227 215 210 200 174 178 166 161 160 162 192 246 230 249
196 146 134 144 174 155 162 255 143 157 131 89 112 125 129 135 129 124 126 134 139 144 150 153 167 174 187 195 200 202 210 213 217 222 229 232 223 207 207 176 175 173 178 174 176 199 216 204 203